COSMOS 2433 (720)

Last updated on Mon Sep 07 2026 00:03:21 GMT+0000 (Coordinated Universal Time)

1 32275U 07052A 26249.09723414 -.00000032 00000+0 00000+0 0 9990 2 32275 65.5263 313.2090 0005264 223.1657 136.8630 2.13104178146789
UTC large
Height (km)
Speed (km/s)
/
Latitude / Longitude
Inclination (degrees)
Orbital Period (minutes)
Azimuth
Elevation
Range (km)
Doppler Factor

Next 0 passes for location: London (51.5072 / 0.1276)

No passes found over London.
COSMOS 2433 (720)